Location: lozzo di cadore
(46.4899°N, 12.4508°E)
Time: 13:31:27
(UTC+02:00)

Envisat - Pass Details

Date: 04 May 2025
Orbit: 761 x 763 km, 98.3° (Epoch: 14 May)

Event Time Altitude Azimuth Distance (km) Brightness Sun altitude
Rises 04:55:26 0° 7° (N) 3,234 6.9 -9.2°
Reaches altitude 10° 04:57:52 10° 360° (N) 2,304 6.0 -8.8°
Maximum altitude 05:02:33 39° 293° (WNW) 1,128 3.6 -8.2°
Drops below altitude 10° 05:07:13 10° 225° (SW) 2,289 4.8 -7.5°
Enters shadow 05:07:37 - 223° (SW) 2,440 5.0 -7.4°
